Terug naar catalogus

TIANGONG

MENGTIAN

ActiefWetenschapVLEO
NORAD 54216·PAYLOAD·🇨🇳 China

Gelanceerd Oct 31, 2022 vanaf Wenchang Space Launch Site

Loading…

Volgende Passages (komende 24 uur)

TLE

VersSource: Space-Track

Epoch: Sep 14, 2026, 14:01 UTC

1 54216U 22143A   26257.58463244  .00018605  00000-0  22780-3 0  9990
2 54216  41.4676 139.2408 0002663 278.8217  81.2320 15.59928303307738

Volg TIANGONG in realtime met AllMySat

Download on the App Store